Regional Weather Roundup
Issued by NWS

Home | Current Version | Previous Version | Text Only | Print | Product List | Glossary Off
Versions: 1 2 3 4 5 6 7 8 9 10 11 12 13 14 15 16 17 18 19 20 21 22 23 24 25 26 27 28 29 30 31 32 33 34 35 36 37 38 39 40 41 42 43 44 45 46 47 48 49 50

000
ASUS43 KMPX 190610
RWRMN
WEATHER ROUNDUP FOR MINNESOTA
NATIONAL WEATHER SERVICE TWIN CITIES/CHANHASSEN MN
1200 AM CST SUN FEB 19 2017


NOTE: "FAIR" INDICATES FEW OR NO CLOUDS BELOW 12,000 FEET WITH NO
SIGNIFICANT WEATHER AND/OR OBSTRUCTIONS TO VISIBILITY. N/A MEANS
CURRENT SKY AND/OR WEATHER CONDITIONS ARE NOT AVAILABLE.

MNZ060>063-068>070-190700-
   Twin Cities Metro

CITY           SKY/WX    TMP DP  RH WIND       PRES   REMARKS
TWIN CITIES    PTCLDY    40  34  79 CALM      29.86R
6HR MIN TEMP:  40; 6HR MAX TEMP:  54;

ST PAUL        CLOUDY    35  33  92 CALM      29.87R
CRYSTAL        PTCLDY    34  29  82 CALM      29.84R
BLAINE         PTCLDY    39  34  81 CALM      29.85R
LAKEVILLE      CLEAR     36  34  93 CALM      29.85R
EDEN PRAIRIE   CLEAR     39  35  86 CALM      29.84R
6HR MIN TEMP:  38; 6HR MAX TEMP:  53;

SOUTH ST PAUL  CLEAR     37  33  86 CALM      29.85R
LAKE ELMO      FAIR      36  34  93 CALM      29.86R
$$
MNZ001>005-007-008-013>017-022>024-027-028-190700-
   Northwest Minnesota

CITY           SKY/WX    TMP DP  RH WIND       PRES   REMARKS
BEMIDJI        CLOUDY    34  32  94 CALM      29.82S
HALLOCK        CLOUDY    34  32  93 CALM      29.84R
ROSEAU         CLOUDY    30  27  86 CALM      29.84R
WARROAD        CLOUDY    28  25  86 CALM      29.84R
THIEF RVR FALL CLOUDY    34  32  92 NE7       29.83S WCI  28
CROOKSTON      CLOUDY    34  32  93 CALM      29.84R
FOSSTON        CLOUDY    32  30  93 CALM      29.82S
DETROIT LAKES  CLOUDY    36  34  93 S5        29.82F
MOORHEAD       CLEAR     36  34  93 E6        29.80F
PARK RAPIDS    PTCLDY    34  29  82 CALM      29.82R
MAHNOMEN       MOCLDY    34  33  95 E5        29.82S WCI  30
$$
MNZ006-009>011-018-025>026-190700-
   North Central Minnesota

CITY           SKY/WX    TMP DP  RH WIND       PRES   REMARKS
BAUDETTE       CLOUDY    27  24  89 W3        29.83R
FLAG ISLAND    PTCLDY    28  27  93 CALM      29.83R
INTL FALLS     CLEAR     29  25  85 SW5       29.83R WCI  24
6HR MIN TEMP:  27; 6HR MAX TEMP:  43;

WASKISH        CLOUDY    32  30  93 CALM      29.83S
BIG FORK       CLOUDY    30  28  93 CALM      29.84R
LONGVILLE      CLOUDY    30  28  93 CALM      29.83R
GRAND RAPIDS   PTCLDY    35  31  85 CALM      29.85R
CRANE LAKE     CLEAR     27  25  93 CALM      29.84S
ORR            PTCLDY    32  28  86 CALM      29.81R
COOK           PTCLDY    34  30  86 CALM      29.83R
WALKER         MOCLDY    33  29  86 CALM      29.83R
$$
MNZ012-019>021-037-190700-
   Northeast Minnesota

CITY           SKY/WX    TMP DP  RH WIND       PRES   REMARKS
DULUTH         CLOUDY    40  32  73 W10       29.82R
6HR MIN TEMP:  40; 6HR MAX TEMP:  44;

ELY            CLEAR     36  30  80 CALM      29.81S
HIBBING        PTCLDY    32  32 100 W3        29.83R
EVELETH        PTCLDY    32  29  89 CALM      29.84R
DULUTH HARBOR  MOCLDY    45  34  65 CALM      29.85R
TWO HARBORS    CLOUDY    45  34  65 CALM      29.79R
SILVER BAY     PTCLDY    41  30  65 CALM      29.78
GRAND MARAIS     N/A     41  32  70 SW7       29.77R
G MARAIS ARPRT PTCLDY    36  27  69 NW10G17   29.75R
$$
MNZ029>031-032-039>041-046>048-054>057-064-190700-
   West Central Minnesota

CITY           SKY/WX    TMP DP  RH WIND       PRES   REMARKS
FERGUS FALLS   CLEAR     43  36  75 SE7       29.83F
WHEATON        CLEAR     32  30  93 SE3       29.82S
MORRIS         CLEAR     36  34  93 SE8       29.79F
ALEXANDRIA     CLEAR     36  34  92 SE6       29.82F
ELBOW LAKE     FAIR      37  34  90 SE8       29.81S
WADENA         PTCLDY    34  32  93 CALM      29.82S
GLENWOOD       CLEAR     36  34  93 NE5       29.83S
APPLETON       CLEAR     37  36  93 SE7       29.80F
BENSON         CLEAR     41  34  75 S7        29.83S
ORTONVILLE     CLEAR     36  34  93 CALM      29.80S
WILLMAR        FAIR      36  36 100 CALM      29.83F
$$
MNZ033>034-036-042>043-049>051-058-059-190700-
   Central Minnesota

CITY           SKY/WX    TMP DP  RH WIND       PRES   REMARKS
ST CLOUD       CLEAR     34  33  96 E3        29.83S FOG
6HR MIN TEMP:  33; 6HR MAX TEMP:  47;

SAUK CENTRE    FAIR      33  32  99 E3        29.82F FOG
PAYNESVILLE    CLEAR     33  33 100 CALM      29.84S
AITKIN         CLOUDY    36  28  75 CALM      29.83R
PINE RIVER     CLOUDY    34  32  93 CALM      29.88R
BRAINERD       CLOUDY    35  33  92 CALM      29.85R
STAPLES        CLOUDY    34  34 100 CALM      29.84R
LONG PRAIRIE   FAIR      32  32 100 CALM      29.83S
LITTLE FALLS   CLOUDY    32  30  93 CALM      29.84S FOG
LITCHFIELD     CLEAR     37  36  93 CALM      29.84S
BUFFALO        CLEAR     34  32  93 CALM      29.85R
MAPLE LAKE     CLEAR     35  34  96 CALM      29.85S
HUTCHINSON     FOG       32  32 100 CALM      29.85S VSB 1/4
$$
MNZ037-044-045-052-053-190700-
   East Central Minnesota

CITY           SKY/WX    TMP DP  RH WIND       PRES   REMARKS
PRINCETON      CLEAR     36  34  93 CALM      29.85S FOG
MORA           CLEAR     32  30  93 CALM      29.86S
CAMBRIDGE      CLEAR     36  28  75 CALM      29.84R
RUSH CITY      CLEAR     36  34  93 CALM      29.85R
MOOSE LAKE     PTCLDY    34  30  86 CALM      29.82S
HINCKLEY       FAIR      34  34 100 CALM      29.84S
CLOQUET        PTCLDY    39  28  65 NW5       29.82S
MCGREGOR       CLOUDY    36  32  87 CALM      29.84R
$$
MNZ071>073-080-081-089-090-097-098-190700-
   Southwest Minnesota

CITY           SKY/WX    TMP DP  RH WIND       PRES   REMARKS
MONTEVIDEO     CLEAR     39  37  93 S7        29.82F
GRANITE FALLS  CLEAR     39  36  88 SE7       29.83F
CANBY          PTCLDY    36  35  94 CALM      29.80F
MARSHALL       CLEAR     40  36  86 S9        29.81F
REDWOOD FALLS  CLEAR     38  33  82 SE7       29.83R
OLIVIA         CLEAR     37  34  87 SE7       29.82F
PIPESTONE      PTCLDY    45  36  70 S9        29.80S
WINDOM         CLOUDY    39  36  87 S8        29.84F
WORTHINGTON    PTCLDY    43  38  82 S9        29.84F
JACKSON        PTCLDY    41  36  81 SE7       29.85F
TRACY          CLOUDY    45  39  80 S10       29.82F
SLAYTON        MOCLDY    33  32  97 S3        29.82F
$$
MNZ065>067-074>077-082>085-091>093-190700-
   South Central Minnesota

CITY           SKY/WX    TMP DP  RH WIND       PRES   REMARKS
MANKATO          N/A     37  34  89 SE6       29.86R
NEW ULM        CLEAR     39  34  81 S5        29.85R
ST JAMES       CLEAR     36  36 100 CALM      29.86F
FAIRMONT       CLEAR     37  36  96 S5        29.87R
GLENCOE        CLEAR     36  36 100 CALM      29.84R
FARIBAULT      PTCLDY    30  28  93 CALM      29.86S
OWATONNA       CLEAR     34  30  86 SE5       29.87S WCI  30
WASECA         CLEAR     34  32  93 SE3       29.88R
ALBERT LEA     FOG       34  34 100 CALM      29.87S VSB 1
$$
MNZ078>079-086>088-094>096-190700-
   Southeast Minnesota

CITY           SKY/WX    TMP DP  RH WIND       PRES   REMARKS
ROCHESTER      CLEAR     34  34 100 S5        29.87F FOG     WCI  30
6HR MIN TEMP:  34; 6HR MAX TEMP:  50;

RED WING       CLOUDY    36  32  87 CALM      29.85S
STANTON        CLEAR     34  32  91 SW6       29.84R WCI  29
DODGE CENTER   PTCLDY    36  36 100 S3        29.87S FOG
WINONA         CLOUDY    34  32  93 CALM      29.88F
AUSTIN         FOG       32  30  93 CALM      29.87S VSB 1/4
PRESTON        CLEAR     40  37  90 CALM      29.88S
$$
ABBREVIATIONS USED IN REMARKS
   TC - TEMPERATURES IN CELSIUS
  WCI - WIND CHILL INDEX
   HX - HEAT INDEX
  VSB - VISIBILITY
$$



USA.gov is the U.S. government's official web portal to all federal, state and local government web resources and services.